Main page
METAR-TAF:

METAR-TAF

Airports :

Pontoise – Cormeilles Aerodrome

Pontoise, France

latitude: 49-05-48N, longitude: 002-02-27E, elevation: 99 m

Current weather observation

The report was made 43 minutes ago, at 03:00 UTC
Wind 2 kt from the South/Southeast
Temperature 15°C
Humidity 100%
Pressure 1014 hPa
Visibility: 5000 m
mist

METAR: LFPT 260300Z AUTO 15002KT 5000 BR NSC 15/15 Q1014

Time: 05:43 (03:43 UTC)


TAF: missing

Weather observations and forecasts of more than 4000 airports (METAR and TAF reports).

The available stations are represented by yellow and red dots on the map.

Hover mouse over dot to see the name of the station.

Then click to see weather observations and forecasts.

To change the map : click on the green buttons with a black cross to zoom in, on the green button with a dash to zoom out, or on the green arrows for adjacent maps.


METAR-TAF: